Content
SEND FEEDBACK

Daily
Averages
Monthly
Summary
Canada

NIAGARA FALLS, ONTARIO


Home > North America > Canada > Ontario
Elevation: 324 feet     Latitude: 43 10N     Longitude: 079 10W

WEATHER
 
SELECT A DAY
Number of Records: 112,421;   Date Range: 1/1/95 - 7/11/14
 
SHARE

PRINT THIS DATA

[ ← Previous Day ]
WEATHER ALMANAC - FEBRUARY 22, 2013
[ Next Day → ]
[ °C ]   °F
Weather ElementAverageHighLow
Temperature30.7 °F32 °F (3:00 pm)23 °F (8:00 am)
Dewpoint26.5 °F30.2 °F (4:48 pm)17.6 °F (8:00 am)
Humidity84.9 %100 % (4:48 pm)69 % (12:00 pm)
Barometer30.07 in30.29 in (8:00 am)30.00 in (8:08 pm)
Wind Speed9.1 mph15 mph (10:00 am)
Wind Gust21.9 mph (12:00 pm)
Weather ElementAverage
Visibility7.7 mi
Wind DirectionE (89.7 °)

Weather ElementTotal
Precipitation---
Heating Degree Days37.5 (Base 65)
Averaged from 31 records on February 22, 2013
WEATHER CONDITIONS BREAKOUT
WIND DIRECTION BREAKOUT
WEATHER BY HOUR - FEBRUARY 22, 2013
[ °C ]   °F
Local TimeTemperatureDewpointHumidityBarometerVisibilityWind DirectionWind SpeedGust SpeedPrecipitationEventsConditions
8:00 AM23.0 °F17.6 °F80 %30.29 in15.0 miEast (100°)13.8 mphOvercast
9:00 AM24.8 °F19.4 °F80 %30.27 in15.0 miEast (90°)11.5 mphOvercast
10:00 AM26.6 °F19.4 °F74 %30.22 in15.0 miEast (100°)15.0 mph20.7 mphOvercast
11:00 AM28.4 °F21.2 °F74 %30.18 in15.0 miEast (100°)13.8 mphOvercast
12:00 PM30.2 °F21.2 °F69 %30.13 in15.0 miEast (90°)12.7 mph21.9 mphOvercast
1:00 PM30.2 °F21.2 °F69 %30.12 in15.0 miEast (90°)12.7 mphOvercast
1:10 PM30.2 °F21.2 °F69 %30.11 in15.0 miEast (90°)11.5 mphSnowLight Snow Showers
2:00 PM30.2 °F23.0 °F75 %30.10 in7.0 miEast (90°)11.5 mphSnowLight Snow
2:15 PM30.2 °F24.8 °F80 %30.09 in2.0 miEast (100°)11.5 mphSnowLight Snow
2:17 PM30.2 °F24.8 °F80 %30.09 in1.0 miEast (100°)12.7 mphSnowLight Snow
2:40 PM30.2 °F28.4 °F93 %30.07 in3.0 miEast (100°)13.8 mphSnowLight Snow
3:00 PM32.0 °F28.4 °F87 %30.05 in4.0 miEast (100°)13.8 mphSnowLight Freezing Drizzle
3:22 PM32.0 °F28.4 °F87 %30.04 in8.0 miESE (110°)12.7 mphSnowLight Freezing Drizzle
3:33 PM32.0 °F28.4 °F87 %30.04 in8.0 miEast (100°)10.4 mph18.4 mphSnowLight Snow
4:00 PM32.0 °F28.4 °F87 %30.04 in8.0 miEast (90°)9.2 mphSnowLight Snow
4:25 PM32.0 °F28.4 °F87 %30.03 in2.0 miEast (90°)9.2 mphSnowLight Snow
4:48 PM30.2 °F30.2 °F100 %30.03 in3.0 miEast (90°)8.1 mphSnowLight Snow Grains
5:00 PM32.0 °F28.4 °F87 %30.02 in6.0 miEast (100°)8.1 mphSnowLight Snow Grains
5:05 PM32.0 °F28.4 °F87 %30.02 in7.0 miEast (100°)8.1 mphOvercast
6:00 PM32.0 °F28.4 °F87 %30.02 in10.0 miEast (80°)6.9 mphOvercast
6:12 PM32.0 °F28.4 °F87 %30.02 in4.0 miEast (80°)5.8 mphSnowLight Snow
6:32 PM32.0 °F28.4 °F87 %30.01 in4.0 miEast (90°)5.8 mphSnowLight Freezing Drizzle
6:49 PM32.0 °F28.4 °F87 %30.01 in7.0 miEast (80°)6.9 mphOvercast
7:00 PM32.0 °F28.4 °F87 %30.01 in7.0 miENE (70°)5.8 mphSnowLight Snow
7:10 PM32.0 °F28.4 °F87 %30.01 in9.0 miENE (60°)6.9 mphOvercast
7:39 PM32.0 °F30.2 °F93 %30.01 in3.0 miESE (110°)3.5 mphSnowLight Snow
7:54 PM32.0 °F30.2 °F93 %30.01 in5.0 miEast (90°)4.6 mphRain-SnowLight Freezing Rain
8:00 PM32.0 °F30.2 °F93 %30.01 in4.0 miEast (80°)4.6 mphRain-SnowLight Freezing Rain
8:08 PM32.0 °F30.2 °F93 %30.00 in5.0 miENE (60°)4.6 mphSnowLight Snow
8:33 PM32.0 °F30.2 °F93 %30.01 in8.0 miEast (80°)3.5 mphOvercast
9:00 PM32.0 °F30.2 °F93 %30.00 in9.0 miENE (70°)2.3 mphOvercast
Hourly data recorded from CYSN, located miles away from Niagara Falls, Ontario







STORIES FROM OUR PARTNERS